Location: Unspecified
(42.1900°N, 71.3291°W)
Time: 10:36:47
(UTC-04:00)

Cosmos 2058 - Visible Passes

Search period start: 28 May 2017 00:00
Search period end: 07 June 2017 00:00
Orbit: 563 x 585 km, 82.5° (Epoch: 27 May)

Date Brightness Start Highest point End Pass type
(mag) Time Alt. Az. Time Alt. Az. Time Alt. Az.
28 May 4.2 01:55:55 29° ESE 01:56:21 30° E 01:59:58 10° NNE visible
28 May 4.5 03:32:09 18° W 03:33:19 21° WNW 03:36:27 10° NNW visible
29 May 3.7 01:59:22 39° ESE 01:59:40 40° E 02:03:32 10° NNE visible
29 May 4.8 03:35:36 14° W 03:36:48 16° WNW 03:39:23 10° NNW visible
30 May 3.2 02:02:48 54° ESE 02:03:00 54° E 02:07:02 10° NNE visible
30 May 5.1 03:39:02 11° W 03:40:18 12° WNW 03:42:00 10° NW visible
31 May 2.8 02:06:14 74° ESE 02:06:20 75° E 02:10:28 10° NNE visible
01 Jun 2.7 02:09:39 81° W 02:09:42 81° W 02:13:52 10° N visible
02 Jun 5.5 00:36:49 10° E 00:36:49 10° E 00:37:33 10° ENE visible
02 Jun 3.0 02:13:02 59° W 02:13:05 59° W 02:17:12 10° N visible
03 Jun 5.3 00:40:12 14° E 00:40:12 14° E 00:42:11 10° NE visible
03 Jun 3.5 02:16:25 43° W 02:16:29 43° WNW 02:20:28 10° N visible
04 Jun 4.9 00:43:34 19° E 00:43:34 19° E 00:46:09 10° NE visible
04 Jun 3.9 02:19:47 32° W 02:19:55 33° WNW 02:23:41 10° N visible
05 Jun 4.6 00:46:56 24° E 00:46:56 24° E 00:49:54 10° NE visible
05 Jun 4.3 02:23:09 25° W 02:23:22 25° WNW 02:26:50 10° NNW visible
06 Jun 4.2 00:50:16 31° ENE 00:50:16 31° ENE 00:53:32 10° NNE visible
06 Jun 4.7 02:26:30 19° WNW 02:26:50 19° WNW 02:29:52 10° NNW visible
